Regional Weather Roundup
Issued by NWS

Home | Current Version | Previous Version | Text Only | Print | Product List | Glossary On
Versions: 1 2 3 4 5 6 7 8 9 10 11 12 13 14 15 16 17 18 19 20 21 22 23 24 25 26 27 28 29 30 31 32 33 34 35 36 37 38 39 40 41 42 43 44 45 46 47 48 49 50
000
ASUS43 KLMK 211510
RWRKY
KENTUCKY REGIONAL WEATHER ROUNDUP
NATIONAL WEATHER SERVICE LOUISVILLE KY
1100 AM EDT TUE OCT 21 2014

NOTE "FAIR" INDICATES FEW OR NO CLOUDS BELOW 12,000 FEET
WITH NO SIGNIFICANT WEATHER AND/OR OBSTRUCTIONS TO VISIBILITY.

KYZ001>023-026-027-061>063-070>075-211600-
WESTERN AND SOUTH CENTRAL KENTUCKY

CITY           SKY/WX    TMP DP  RH WIND       PRES   REMARKS
PADUCAH        SUNNY     61  50  67 NW5       30.08S
HENDERSON      SUNNY    N/A N/A N/A N8        30.09R
OWENSBORO      SUNNY     58  48  69 NE6       30.09R
HOPKINSVILLE   SUNNY     62  51  68 NW6       30.08R
BOWLING GREEN  SUNNY     61  48  62 N5        30.07S
GLASGOW        CLOUDY    59  48  67 N7        30.07R
$$

KYZ024-025-028>034-038-045-046-053-211600-
NORTH CENTRAL KENTUCKY

CITY           SKY/WX    TMP DP  RH WIND       PRES   REMARKS
LOUISVILLE/SDF CLOUDY    56  46  69 N10       30.07R
LOUISVILLE/LOU CLOUDY    54  46  74 NW7       30.08R
FORT KNOX      CLOUDY    54  46  76 N6        30.07R
$$

KYZ035>037-039>044-047>052-055>060-089>105-211600-
NORTHEAST KENTUCKY

CITY           SKY/WX    TMP DP  RH WIND       PRES   REMARKS
LEXINGTON      CLOUDY    54  46  74 NW12      30.05R
COVINGTON      CLOUDY    53  43  68 NW10      30.03S
FRANKFORT      CLOUDY    53  45  74 N9        30.05R
$$

KYZ054-064>069-076>088-106>120-211600-
SOUTHEAST KENTUCKY

CITY           SKY/WX    TMP DP  RH WIND       PRES   REMARKS
JACKSON        CLOUDY    52  48  86 VRB7      30.01R
LONDON         PTSUNNY   59  46  62 NW7       30.03S
SOMERSET       SUNNY     55  46  71 NW6       30.06S
MIDDLESBORO    MOSUNNY   59  48  67 NW7       30.03R
MONTICELLO       N/A    N/A N/A N/A MISG        N/A
$$



USA.gov is the U.S. government's official web portal to all federal, state and local government web resources and services.